Wind_Speed
6 3 2 4 4 2 4 8 11 11 9 9 12 15 14 9 10 8 9 6 4 2 1 2 3 5 7 8 10 11 10 10 10 10 10 10 9 9 10 10 10 9 8 8 10 10 9 9 7
8 5 3 1 4 2 7 10 11 12 13 11 11 19 17 10 12 14 12 6 3 1 1 3 4 7 9 10 11 11 10 9 8 9 9 10 11 11 11 12 13 14 13 13 14 13 12 11 11
8 7 5 1 2 2 6 10 7 10 13 13 15 17 15 12 12 14 9 5 4 1 3 4 5 8 9 9 9 8 9 9 9 11 11 12 12 12 13 13 14 16 17 17 18 17 16 14 12
9 8 7 3 2 4 5 8 6 11 13 17 18 16 14 12 10 7 6 4 5 6 4 5 7 9 9 9 9 9 9 10 10 11 12 13 13 14 14 16 17 19 20 21 20 20 19 17 15
10 10 5 2 1 3 4 6 9 11 17 21 21 18 14 9 3 2 5 6 4 5 6 8 9 9 10 10 10 10 11 10 11 13 14 15 15 16 17 18 18 19 19 20 20 17 17 16 16
10 6 2 0 4 2 5 11 13 9 15 18 19 17 15 11 7 7 5 5 6 8 8 9 11 11 11 10 11 12 10 11 11 13 15 17 18 17 17 17 18 18 18 19 19 18 14 14 14
7 6 2 5 6 9 10 13 13 7 13 15 12 13 13 14 11 6 6 8 7 12 13 11 12 12 10 11 12 9 9 9 10 12 13 14 16 15 15 15 18 19 19 20 19 16 13 14 17
4 2 3 5 7 10 13 15 16 11 17 20 15 16 14 12 14 6 8 7 8 12 12 11 11 10 8 8 7 6 7 6 7 9 10 12 12 13 13 14 16 18 19 19 20 19 15 15 16
5 5 3 4 9 10 12 17 17 19 19 21 22 19 17 20 18 11 9 9 11 11 11 11 8 7 5 4 5 4 3 5 6 8 10 12 14 15 18 18 19 19 20 19 19 18 19 17 19
6 6 4 4 6 12 15 18 21 18 19 23 24 17 15 16 16 12 13 13 10 10 10 9 4 3 5 4 3 2 3 5 7 8 8 11 15 17 19 20 20 23 23 21 20 18 20 21 19
6 7 7 8 9 14 17 19 19 17 16 18 16 10 17 18 16 14 11 12 9 9 8 6 2 2 4 6 4 3 3 5 5 8 11 13 16 17 20 20 18 21 24 26 24 22 19 21 19
6 8 8 7 9 14 18 17 15 14 13 15 8 7 16 17 14 10 11 10 7 7 5 4 5 6 6 5 4 1 3 6 10 13 15 19 20 20 20 19 18 21 23 28 26 23 19 18 20
4 11 9 10 10 14 15 9 9 9 9 5 5 6 12 16 11 11 7 9 7 7 9 6 6 7 6 4 3 5 5 8 13 15 18 20 23 22 23 19 20 22 24 26 24 19 13 16 18
5 10 11 12 9 12 5 5 10 10 7 6 7 8 11 10 9 9 9 7 8 4 5 7 8 12 13 11 10 10 11 12 14 16 19 22 23 25 20 18 23 24 23 24 22 18 16 12 16
9 12 13 13 15 8 1 7 12 10 11 6 6 9 8 9 4 5 6 7 7 6 7 7 10 12 13 16 16 14 13 14 16 14 18 18 14 16 20 20 19 22 19 20 19 19 18 12 14
17 13 17 15 11 5 3 6 8 8 5 2 6 9 5 3 4 6 7 6 8 7 9 10 13 13 14 14 12 12 13 13 13 13 13 12 12 12 13 17 20 18 17 16 18 19 15 10 14
14 16 16 18 12 6 5 6 4 7 5 3 5 8 5 2 2 7 9 5 7 10 13 16 17 20 22 25 19 17 17 12 12 13 13 14 14 15 15 16 15 13 14 14 16 14 13 9 9
12 12 11 16 11 8 6 7 6 4 4 1 4 9 7 5 5 3 5 5 5 7 10 14 16 15 21 27 18 16 16 9 11 14 15 12 13 14 15 14 12 12 13 14 14 15 13 11 9
11 10 9 14 9 8 7 7 6 1 3 6 3 11 12 7 5 4 2 3 4 6 8 11 13 13 18 21 17 6 13 10 10 10 11 10 13 13 12 11 10 13 14 15 16 15 14 13 11
13 12 13 13 11 8 7 5 3 3 7 6 4 11 11 9 7 6 4 3 2 5 7 9 9 10 11 11 7 7 2 3 6 9 10 11 11 12 11 11 13 16 16 18 19 18 16 14 11
14 11 8 9 11 7 6 4 6 7 5 5 4 7 9 10 8 8 7 6 4 4 6 7 9 11 10 8 5 4 4 5 7 9 11 12 14 14 15 15 16 17 18 19 19 19 18 18 18
15 11 10 15 13 10 4 3 10 6 8 10 6 5 6 6 6 4 4 5 7 8 10 13 13 13 14 14 12 11 10 11 12 13 14 15 16 17 17 17 18 19 20 21 22 22 21 20 19
15 15 14 15 13 9 6 3 6 9 15 15 9 8 5 7 5 6 8 9 11 12 13 14 13 14 16 19 20 19 18 18 19 20 21 21 22 21 22 22 23 24 24 25 25 25 25 25 24
17 19 18 19 14 12 8 7 4 8 8 10 9 8 8 8 9 13 15 17 18 18 18 17 17 18 20 20 23 24 24 25 26 26 26 27 28 28 28 28 28 30 30 30 30 30 29 29 28
18 19 20 20 19 15 12 13 11 11 7 10 13 10 8 9 10 12 14 14 19 21 20 19 19 20 22 23 23 24 26 27 29 30 30 31 32 32 32 32 32 32 33 33 32 32 32 31 31
22 20 18 19 19 17 14 16 17 17 11 14 13 14 12 14 14 16 14 15 11 11 13 20 24 25 27 28 26 27 29 32 32 33 35 33 32 34 36 34 34 33 32 32 32 31 32 31 31
17 19 20 21 21 20 22 21 23 22 16 13 14 14 17 18 19 18 18 15 16 17 16 19 22 22 23 27 31 31 31 33 34 36 37 39 38 39 41 36 35 35 33 31 31 33 33 33 34
17 17 17 15 13 15 16 17 19 19 15 14 14 16 19 22 20 16 17 21 22 22 25 27 27 29 29 29 28 30 31 29 31 33 33 37 36 36 37 36 39 37 36 35 32 34 35 35 36
19 19 15 16 15 15 13 11 10 13 13 13 14 15 17 18 19 20 24 26 26 28 28 32 34 32 32 31 29 29 30 27 28 35 38 38 42 45 38 34 33 39 38 37 35 36 36 36 37
22 21 18 17 13 6 8 14 12 11 12 14 18 19 20 22 24 26 28 30 33 36 38 38 36 37 35 36 42 36 30 31 37 41 41 40 40 41 39 37 36 35 40 42 39 38 39 38 37
Wind_Direction
218 209 204 133 102 50 20 357 358 13 24 54 72 47 29 42 44 46 35 32 70 116 137 170 212 247 252 254 261 273 279 283 287 288 291 296 301 300 306 314 318 318 315 309 308 308 309 304 301
226 224 250 151 119 250 313 326 342 2 19 57 49 34 45 51 33 24 18 28 57 87 201 231 253 258 260 266 270 270 274 275 277 276 283 290 294 303 311 318 317 317 312 311 306 305 304 304 300
236 246 244 262 164 284 341 1 12 23 45 50 36 39 44 59 45 35 21 346 3 329 249 231 232 247 252 252 256 266 272 271 275 281 285 291 298 303 305 307 307 308 309 308 305 303 299 293 285
234 254 266 54 145 20 2 328 18 9 42 47 44 34 47 67 58 31 29 12 351 328 260 251 237 247 250 252 255 256 254 256 264 273 282 289 292 298 306 310 314 310 311 310 307 303 297 288 281
232 249 291 25 344 46 338 10 6 15 41 36 37 29 28 22 16 325 334 331 331 321 289 257 240 248 251 251 253 258 262 274 281 287 290 292 298 306 311 314 316 315 316 314 313 312 302 295 278
236 247 37 109 66 63 6 6 5 32 47 39 27 23 15 9 1 346 322 326 326 315 310 277 259 248 246 258 263 265 277 283 288 289 297 302 308 314 321 324 323 320 320 317 316 318 306 285 280
255 274 95 43 26 11 9 10 9 29 49 43 29 18 8 344 326 309 306 302 304 300 292 273 257 254 244 242 252 261 267 277 285 290 301 308 313 322 327 331 327 320 312 308 310 314 311 285 285
301 330 23 35 20 9 9 360 10 16 33 30 28 16 12 360 20 14 30 8 328 302 279 265 255 254 261 268 280 272 281 279 287 301 307 308 313 321 329 330 325 330 330 309 304 307 311 300 281
356 344 357 44 26 3 356 1 15 31 33 21 28 12 10 24 26 32 17 11 346 319 284 263 251 250 259 288 291 284 296 317 323 320 310 310 315 318 315 315 317 322 331 330 311 300 300 303 294
336 346 333 3 12 2 356 355 9 27 19 25 15 15 21 19 35 54 39 29 350 325 298 281 254 142 93 47 21 345 308 299 311 309 311 308 310 316 315 317 328 330 328 328 316 306 290 293 295
323 322 328 342 348 358 351 4 5 23 10 29 25 41 24 13 13 28 47 36 9 345 307 286 208 153 121 115 98 80 35 342 338 312 313 309 318 319 323 327 328 333 328 320 313 308 291 273 282
289 303 322 332 338 346 354 358 2 13 15 19 62 54 17 12 4 11 30 22 356 329 305 256 186 142 128 123 133 102 0 332 327 328 334 328 312 314 326 327 327 330 325 321 319 302 290 256 265
302 289 311 299 320 338 356 11 1 32 57 75 68 28 18 10 19 11 15 14 3 337 316 284 219 213 207 225 234 255 293 306 310 326 333 326 328 319 316 331 335 330 340 343 336 323 289 243 252
266 284 289 295 308 321 4 87 100 106 93 83 56 41 19 5 20 19 10 358 354 337 290 271 259 255 254 255 267 274 280 287 302 318 326 329 326 333 315 320 325 334 343 355 352 333 336 262 248
248 259 273 282 299 319 180 114 107 98 84 61 35 35 15 358 346 328 329 331 320 320 299 298 307 308 287 273 273 275 278 285 298 309 319 331 355 349 336 319 325 330 337 355 354 340 321 287 249
239 246 257 266 274 300 177 136 117 85 89 28 27 31 21 318 252 238 263 287 288 286 298 299 303 305 297 289 281 282 284 285 292 297 322 332 322 322 327 328 326 328 342 344 352 349 348 319 261
238 239 251 251 249 251 173 149 140 110 102 43 30 47 65 75 311 223 251 226 274 285 265 271 283 290 290 295 268 271 281 282 288 305 313 310 316 318 319 322 330 342 347 357 359 359 356 336 314
240 256 256 247 253 247 161 150 149 143 98 329 59 56 63 52 59 107 171 178 257 283 279 281 279 302 287 289 294 264 267 265 287 305 302 303 315 315 320 328 338 353 356 9 4 13 7 9 19
254 265 221 221 239 213 156 141 139 194 309 309 98 61 52 49 44 55 154 179 236 263 285 284 290 301 297 326 350 318 262 294 303 309 316 318 321 328 333 335 344 352 357 4 3 11 8 9 2
244 238 224 252 228 200 173 181 169 208 268 281 90 73 61 44 22 36 63 68 347 301 301 295 298 302 310 342 24 48 12 334 327 317 315 317 327 333 333 335 345 348 358 0 357 356 355 357 356
246 250 255 242 231 204 184 200 242 269 280 312 4 81 70 69 45 27 19 11 344 295 291 290 296 308 308 308 328 343 313 311 316 325 325 323 325 327 330 336 338 338 337 340 341 340 337 337 337
249 250 248 253 225 207 206 254 259 276 309 304 333 354 55 76 78 52 14 338 317 308 308 312 321 324 315 312 310 307 304 306 308 311 309 308 311 312 316 323 326 324 321 322 321 320 321 321 321
253 256 246 243 228 232 265 252 254 266 281 282 322 330 359 357 21 18 4 333 305 292 288 292 298 296 297 298 301 304 306 305 303 302 303 302 301 301 305 309 310 310 311 311 311 312 312 308 306
258 254 251 249 237 252 256 260 239 265 305 266 304 323 359 337 348 346 334 320 308 292 281 280 282 286 289 290 288 292 297 297 295 295 295 295 294 295 295 296 298 298 299 300 301 301 301 301 301
249 248 243 243 247 252 262 267 271 281 262 285 288 288 301 323 314 314 317 298 299 297 290 281 282 282 282 285 290 294 295 298 299 297 295 295 293 290 289 289 290 292 294 293 293 294 294 294 294
250 243 244 249 254 262 256 261 268 287 284 277 284 285 283 300 302 308 279 267 270 284 294 288 288 290 293 295 297 297 299 300 301 305 303 295 295 302 298 292 290 288 287 288 290 290 290 291 291
241 242 251 256 264 266 265 261 265 280 287 277 267 277 280 287 295 294 279 280 285 279 283 276 270 276 281 287 292 293 292 294 299 302 306 306 308 305 293 293 291 289 286 285 286 286 286 287 289
248 252 253 268 264 264 268 268 262 264 272 270 266 271 283 295 295 299 305 298 292 297 305 304 299 294 289 287 287 286 289 293 296 306 308 307 304 313 309 297 287 287 284 283 282 283 283 284 285
241 256 260 264 269 282 286 289 277 278 286 283 285 290 294 297 298 297 305 304 309 308 311 311 307 302 299 302 297 290 293 304 316 320 315 309 306 306 303 294 294 279 284 284 283 282 283 285 287
243 252 255 263 265 229 290 293 285 296 284 286 299 305 303 299 301 300 298 303 311 314 312 306 298 291 290 296 304 280 284 318 320 315 312 309 308 306 306 302 297 287 285 278 282 286 285 284 285
Height
5905 5907 5908 5909 5912 5909 5908 5907 5905 5904 5903 5901 5901 5900 5898 5896 5897 5899 5896 5895 5895 5894 5894 5893 5893 5894 5894 5894 5895 5895 5893 5892 5891 5889 5888 5887 5886 5885 5885 5885 5885 5886 5886 5885 5884 5884 5883 5883 5882
5904 5906 5907 5909 5911 5908 5907 5905 5905 5903 5901 5900 5898 5896 5897 5897 5897 5897 5897 5896 5895 5894 5894 5894 5894 5894 5893 5893 5891 5891 5890 5890 5889 5887 5885 5884 5884 5883 5883 5883 5883 5883 5882 5882 5881 5881 5881 5880 5880
5904 5905 5907 5909 5909 5908 5907 5906 5905 5904 5902 5900 5899 5897 5896 5896 5897 5897 5896 5897 5897 5895 5894 5893 5893 5893 5892 5890 5889 5889 5888 5888 5886 5885 5884 5883 5883 5882 5882 5882 5882 5880 5880 5880 5878 5878 5877 5878 5877
5903 5905 5906 5910 5908 5908 5908 5906 5906 5905 5902 5900 5899 5899 5897 5897 5897 5897 5896 5895 5895 5894 5893 5892 5892 5892 5891 5890 5890 5888 5887 5885 5884 5884 5882 5882 5882 5882 5881 5882 5881 5878 5878 5876 5875 5875 5873 5874 5874
5902 5903 5906 5908 5909 5910 5908 5907 5906 5902 5900 5900 5899 5899 5899 5898 5897 5896 5896 5895 5893 5892 5892 5891 5890 5891 5890 5889 5888 5887 5886 5886 5886 5885 5883 5883 5882 5882 5881 5880 5879 5876 5875 5874 5873 5871 5870 5869 5869
5901 5904 5907 5908 5910 5909 5908 5907 5906 5903 5901 5901 5899 5898 5897 5896 5896 5895 5894 5893 5893 5892 5890 5889 5889 5888 5888 5888 5887 5887 5887 5886 5884 5884 5884 5883 5882 5880 5880 5879 5877 5875 5873 5870 5869 5868 5867 5865 5864
5902 5903 5907 5908 5908 5908 5909 5909 5908 5905 5902 5901 5900 5899 5897 5895 5892 5892 5891 5891 5890 5890 5889 5888 5888 5888 5886 5885 5885 5886 5885 5884 5883 5882 5881 5880 5879 5879 5879 5877 5875 5874 5871 5868 5866 5865 5864 5862 5861
5902 5904 5906 5907 5908 5909 5909 5908 5909 5906 5902 5900 5900 5897 5896 5893 5890 5888 5888 5889 5889 5889 5888 5888 5887 5887 5885 5884 5885 5885 5885 5883 5882 5882 5880 5878 5877 5876 5876 5876 5874 5872 5869 5866 5863 5862 5860 5859 5858
5903 5905 5905 5906 5907 5908 5908 5908 5907 5904 5901 5900 5900 5897 5896 5893 5890 5888 5887 5887 5888 5889 5888 5888 5886 5886 5885 5885 5885 5885 5885 5883 5883 5881 5879 5877 5875 5874 5874 5873 5872 5868 5866 5864 5860 5858 5857 5856 5855
5901 5903 5904 5905 5906 5906 5907 5907 5905 5903 5901 5901 5899 5897 5895 5892 5890 5889 5889 5888 5888 5889 5888 5888 5887 5885 5884 5885 5884 5884 5883 5883 5882 5881 5879 5877 5875 5873 5872 5870 5869 5865 5862 5859 5857 5854 5853 5852 5852
5900 5902 5903 5903 5904 5905 5906 5906 5904 5902 5902 5901 5900 5898 5896 5893 5890 5890 5889 5888 5887 5887 5887 5887 5886 5885 5885 5884 5884 5884 5883 5882 5881 5880 5879 5876 5875 5872 5869 5867 5866 5862 5859 5855 5853 5852 5848 5847 5848
5900 5900 5902 5904 5904 5905 5905 5904 5904 5903 5903 5902 5901 5899 5897 5894 5891 5890 5889 5888 5888 5887 5887 5887 5887 5886 5885 5885 5884 5883 5882 5881 5879 5878 5878 5876 5873 5871 5868 5865 5863 5861 5858 5852 5848 5845 5843 5842 5843
5901 5899 5902 5904 5905 5905 5905 5905 5904 5904 5903 5902 5900 5900 5898 5895 5892 5891 5890 5890 5889 5888 5887 5887 5887 5886 5885 5884 5884 5882 5881 5880 5879 5878 5876 5874 5872 5869 5867 5863 5860 5859 5854 5849 5844 5840 5838 5838 5840
5901 5899 5902 5903 5905 5905 5905 5904 5903 5903 5902 5901 5901 5899 5898 5896 5893 5892 5890 5890 5890 5889 5887 5887 5886 5886 5885 5884 5884 5882 5880 5879 5877 5877 5875 5872 5870 5866 5863 5861 5858 5855 5851 5848 5843 5839 5838 5837 5838
5899 5900 5902 5903 5903 5904 5904 5904 5903 5903 5902 5900 5900 5898 5897 5895 5893 5891 5891 5891 5890 5889 5889 5888 5885 5885 5884 5883 5882 5881 5879 5877 5877 5875 5873 5871 5867 5865 5862 5860 5857 5853 5850 5846 5842 5839 5836 5835 5835
5897 5899 5901 5903 5903 5903 5903 5903 5902 5902 5901 5900 5900 5898 5895 5893 5891 5889 5890 5890 5890 5889 5888 5887 5885 5883 5882 5881 5880 5878 5876 5874 5873 5872 5870 5868 5866 5863 5861 5859 5855 5852 5848 5845 5841 5838 5835 5833 5833
5897 5897 5899 5901 5902 5902 5902 5902 5902 5901 5901 5900 5898 5896 5893 5891 5889 5889 5888 5888 5889 5889 5887 5886 5885 5883 5881 5877 5873 5873 5870 5871 5871 5870 5868 5866 5863 5861 5859 5856 5853 5849 5846 5842 5839 5837 5834 5833 5832
5895 5896 5899 5899 5901 5901 5900 5901 5901 5900 5900 5900 5898 5895 5893 5891 5889 5888 5887 5887 5887 5887 5885 5884 5882 5882 5877 5872 5870 5871 5869 5866 5867 5867 5865 5864 5862 5860 5857 5855 5852 5849 5845 5841 5839 5837 5835 5833 5831
5892 5895 5897 5898 5900 5900 5899 5899 5899 5899 5899 5899 5897 5894 5892 5891 5890 5889 5888 5886 5886 5885 5883 5882 5879 5878 5875 5874 5870 5868 5869 5869 5866 5865 5864 5862 5860 5858 5855 5853 5850 5847 5844 5841 5838 5836 5835 5833 5832
5891 5894 5895 5897 5898 5899 5898 5899 5898 5898 5898 5898 5895 5892 5891 5890 5890 5890 5888 5887 5885 5884 5882 5881 5879 5877 5875 5873 5873 5869 5870 5868 5865 5864 5862 5861 5859 5856 5854 5851 5848 5846 5843 5840 5838 5836 5835 5833 5832
5890 5892 5894 5896 5897 5897 5898 5898 5898 5897 5897 5895 5894 5892 5891 5889 5889 5889 5888 5887 5886 5884 5882 5881 5878 5876 5873 5871 5869 5867 5866 5865 5863 5861 5859 5857 5856 5854 5852 5848 5845 5843 5841 5839 5837 5835 5834 5832 5831
5888 5890 5892 5894 5895 5895 5896 5897 5896 5897 5897 5894 5893 5892 5890 5888 5887 5887 5886 5885 5885 5883 5882 5881 5878 5875 5872 5869 5868 5866 5864 5862 5859 5857 5855 5853 5851 5850 5847 5845 5842 5840 5838 5836 5834 5832 5831 5829 5827
5886 5887 5890 5891 5890 5891 5892 5893 5895 5896 5896 5893 5893 5891 5889 5888 5886 5885 5883 5883 5882 5881 5880 5878 5875 5873 5870 5867 5865 5863 5861 5859 5856 5854 5851 5849 5847 5844 5842 5840 5838 5836 5834 5832 5830 5828 5826 5824 5822
5883 5884 5886 5888 5888 5888 5889 5890 5891 5892 5892 5890 5890 5891 5888 5887 5885 5883 5881 5880 5879 5878 5876 5874 5872 5869 5867 5864 5862 5859 5857 5854 5852 5849 5847 5844 5842 5839 5836 5834 5832 5830 5828 5826 5824 5821 5819 5817 5815
5879 5880 5882 5884 5885 5886 5886 5887 5887 5887 5889 5888 5886 5887 5886 5884 5882 5881 5879 5877 5875 5873 5872 5869 5866 5864 5862 5859 5856 5853 5851 5849 5846 5843 5841 5839 5836 5833 5831 5828 5825 5823 5820 5818 5816 5814 5812 5810 5807
5874 5876 5878 5879 5880 5882 5883 5884 5883 5883 5884 5884 5883 5883 5883 5883 5882 5881 5879 5875 5872 5869 5866 5864 5861 5858 5855 5852 5849 5847 5844 5841 5839 5837 5835 5833 5829 5827 5824 5821 5818 5814 5811 5809 5807 5804 5803 5802 5799
5871 5872 5874 5876 5877 5878 5879 5881 5881 5881 5880 5880 5880 5879 5879 5879 5878 5876 5873 5871 5869 5866 5863 5860 5857 5853 5850 5847 5843 5841 5839 5836 5834 5831 5828 5824 5821 5818 5815 5812 5810 5807 5803 5800 5798 5796 5793 5791 5789
5867 5870 5871 5872 5873 5873 5874 5875 5876 5876 5877 5877 5877 5876 5875 5874 5873 5870 5868 5867 5864 5862 5859 5856 5852 5848 5844 5841 5838 5835 5832 5829 5827 5825 5820 5816 5813 5809 5805 5802 5800 5797 5794 5791 5788 5786 5784 5781 5779
5865 5865 5867 5868 5869 5869 5869 5870 5870 5870 5872 5872 5872 5872 5870 5868 5866 5864 5861 5860 5858 5855 5854 5849 5842 5839 5835 5833 5828 5825 5822 5819 5817 5815 5811 5807 5802 5798 5795 5791 5787 5785 5783 5780 5777 5774 5772 5771 5768
5860 5861 5863 5864 5865 5865 5865 5866 5865 5866 5866 5866 5864 5863 5863 5862 5860 5858 5855 5853 5849 5846 5844 5840 5835 5832 5824 5820 5812 5803 5810 5811 5808 5805 5802 5797 5791 5787 5783 5780 5776 5774 5770 5767 5766 5764 5761 5759 5757